Location: Earls Croome
(52.0667°N, 2.2000°W)
Time: 02:10:20
(UTC+00:00)

COSMOS 2455 - Pass Details

Date: 21 February 2020
Orbit: 901 x 909 km, 67.2° (Epoch: 06 April)

Event Time Altitude Azimuth Distance (km) Brightness Sun altitude
Exits shadow 05:05:13 - 325° (NW) 2,836 5.2 -20.3°
Reaches altitude 10° 05:05:57 10° 328° (NNW) 2,600 5.0 -20.2°
Maximum altitude 05:11:19 32° 31° (NNE) 1,510 4.3 -19.4°
Drops below altitude 10° 05:16:41 10° 94° (E) 2,596 6.5 -18.6°
Sets 05:19:28 0° 104° (ESE) 3,535 7.3 -18.1°
